[[{"header":{"parameterUnit":"m.s-1","parameterCategory":1,"la1":30.2991,"la2":30.254,"lo1":-89.0895,"lo2":-89.0444,"dy":0.0017,"dx":0.0017,"nx":28,"ny":28,"refTime":"2023-09-06T03:00:00:Z","depth":0,"parameterNumber":2,"parameterNumberName":"U-component_of_WINDS"},"data":[0,0,0,0,0,0,0,0,0,0,0,0,0,0,0,0,0,0,0,0,0,0,0,0,0,0,0,0,0,0,0,0,0,0,0,0,0,0,0,0,0,0,0,0,0,0,0,0,0,0,0,0,0,0,0,0,0,0,-3.5399,-3.5399,0,-3.5465,-3.5466,-3.5466,-3.5375,-3.5371,-3.5368,-3.5365,-3.543,-3.5435,-3.5439,0,0,0,0,0,0,0,0,0,0,0,0,0,-3.519,-3.5194,-3.5399,-3.5399,-3.54,-3.5465,-3.5466,-3.5467,-3.5375,-3.5371,-3.5367,-3.5364,-3.5429,-3.5434,-3.544,0,0,0,0,0,0,0,0,0,0,0,0,0,-3.5271,-3.5196,-3.5398,-3.5363,-3.536,-3.5465,-3.5466,-3.5467,-3.5376,-3.5371,-3.5366,-3.5362,-3.5427,-3.5434,-3.5441,-3.5583,0,0,-3.5463,-3.5466,0,0,0,0,0,0,0,0,-3.5266,-3.5279,-3.5367,-3.5365,-3.5363,-3.5407,-3.5416,-3.5506,-3.5377,-3.537,-3.5365,-3.5359,-3.5426,-3.5433,-3.5456,-3.5586,-3.5589,-3.5463,-3.5467,-3.5471,-3.5473,0,0,0,0,0,0,0,-3.5261,-3.5275,-3.5425,-3.5368,-3.5366,-3.5342,-3.5348,-3.5432,-3.5424,-3.537,-3.5364,-3.5373,-3.5424,-3.5449,-3.5457,-3.5589,-3.5463,-3.5469,-3.5474,-3.5477,-3.5839,-3.5844,0,0,0,0,0,0,-3.526,-3.5271,-3.5423,-3.5427,-3.5302,-3.535,-3.5357,-3.5397,-3.5423,-3.5423,-3.5377,-3.5368,-3.544,-3.5449,-3.5459,-3.5626,-3.547,-3.5477,-3.5481,-3.5834,-3.584,-3.5846,0,0,0,0,0,0,-3.5256,-3.5274,-3.542,-3.5347,-3.5364,-3.5359,-3.5405,-3.5401,-3.5427,-3.5429,-3.5426,-3.5405,-3.5436,-3.5449,-3.5553,-3.5627,-3.548,-3.5487,-3.5827,-3.5836,-3.5843,-3.5963,0,0,0,0,0,0,-3.525,-3.5273,-3.5328,-3.5349,-3.5368,-3.5514,-3.541,-3.5406,-3.544,-3.5429,-3.5454,-3.5453,-3.5433,-3.5543,-3.556,-3.5634,-3.5493,-3.5821,-3.5831,-3.5841,-3.5952,-3.5974,-3.5993,0,0,0,0,0,-3.5243,-3.5358,-3.5331,-3.535,-3.5436,-3.5518,-3.5529,-3.5504,-3.5446,-3.55,-3.5502,-3.5453,-3.5617,-3.5554,-3.5573,-3.5651,-3.5816,-3.5828,-3.584,-3.5943,-3.597,-3.5992,0,0,0,0,0,0,-3.5344,-3.536,-3.533,-3.5456,-3.5487,-3.5503,-3.557,-3.5533,-3.558,-3.5568,-3.5534,-3.5541,-3.5652,-3.5662,-3.5592,-3.5789,-3.5706,-3.5723,-3.5779,-3.5804,-3.5824,-3.5818,-3.5498,0,0,0,0,0,-3.5382,-3.5448,-3.5458,-3.5568,-3.5585,-3.5576,-3.561,-3.5589,-3.5618,-3.563,-3.5639,-3.567,-3.5728,-3.5767,-3.582,-3.5954,-3.5958,-3.6017,-3.6037,-3.6054,-3.6068,-3.6139,-3.6165,-3.5885,-3.5885,-3.5885,0,0,-3.5458,-3.5475,-3.5519,-3.5589,-3.561,-3.5678,-3.5587,-3.5663,-3.5713,-3.5642,-3.574,-3.5749,-3.578,-3.5899,-3.5952,-3.5911,-3.6146,-3.6069,-3.6082,-3.6087,-3.6154,-3.618,-3.6204,-3.5894,-3.5892,-3.5891,0,0,-3.5633,-3.5653,-3.5747,-3.5771,-3.5804,-3.5798,-3.582,-3.5843,-3.5845,-3.5945,-3.5893,-3.5952,-3.6053,-3.6077,-3.6103,-3.6289,-3.6246,-3.6308,-3.6412,-3.6482,-3.6504,-3.6523,-3.6589,-3.6613,-3.6322,-3.6322,-3.6323,0,-3.5724,-3.5826,-3.5799,-3.588,-3.5911,-3.5852,-3.5946,-3.597,-3.6019,-3.6042,-3.5996,-3.6122,-3.6139,-3.6263,-3.6309,-3.6332,-3.6356,-3.6304,-3.6503,-3.6522,-3.654,-3.6602,-3.6627,-3.633,-3.6329,-3.6328,-3.6327,0,-3.5935,-3.6007,-3.6078,-3.6129,-3.6169,-3.6256,-3.6242,-3.6285,-3.6261,-3.6259,-3.6361,-3.638,-3.6436,-3.6464,-3.6441,-3.6586,-3.6559,-3.6509,-3.6424,-3.6574,-3.6632,-3.6656,-3.634,-3.6337,-3.6335,-3.6333,0,0,-3.6173,-3.6209,-3.6236,-3.6258,-3.6292,-3.6346,-3.6431,-3.6487,-3.6525,-3.6562,-3.6631,-3.6719,-3.6673,-3.6702,-3.6681,-3.6743,-3.6888,-3.6685,-3.6685,-3.6721,-3.7048,-3.7084,-3.7112,-3.686,-3.6865,-3.6868,-3.7045,0,-3.6346,-3.6493,-3.6472,-3.6613,-3.6678,-3.6624,-3.6697,-3.6726,-3.6727,-3.6782,-3.6782,-3.6845,-3.678,-3.6797,-3.6856,-3.6858,-3.6953,-3.6845,-3.6923,-3.6926,-3.6915,-3.7143,-3.7181,-3.7346,-3.7067,-3.7071,-3.7074,0,-3.6568,-3.6614,-3.6762,-3.6786,-3.6812,-3.6879,-3.6929,-3.6983,-3.7014,-3.7011,-3.7045,-3.7013,-3.7096,-3.7013,-3.7127,-3.7054,-3.7085,-3.7091,-3.7097,-3.7102,-3.7008,-3.7152,-3.7399,-3.7423,-3.7109,-3.7106,-3.7104,0,-3.6725,-3.6824,-3.6925,-3.6946,-3.6977,-3.7025,-3.704,-3.7067,-3.7102,-3.7147,-3.7169,-3.7222,-3.7251,-3.7293,-3.7276,-3.7217,-3.7394,-3.7308,-3.7392,-3.7392,-3.7429,-3.7427,-3.7683,-3.7453,-3.7452,-3.7452,-3.7451,0,-3.692,-3.7012,-3.6996,-3.7058,-3.7159,-3.7135,-3.7236,-3.7244,-3.7269,-3.7331,-3.7288,-3.7346,-3.7322,-3.7379,-3.7367,-3.7463,-3.7477,-3.7475,-3.747,-3.7478,-3.7478,-3.7496,-3.7484,-3.7459,-3.7457,-3.7456,-3.7455,0,-3.7111,-3.7105,-3.7211,-3.7233,-3.7241,-3.7314,-3.7332,-3.739,-3.7389,-3.7468,-3.7485,-3.7482,-3.7548,-3.7536,-3.7608,-3.7599,-3.7719,-3.7701,-3.7709,-3.7704,-3.7788,-3.778,-3.8063,-3.8099,-3.7847,-3.785,-3.7852,0,-3.7235,-3.7305,-3.7335,-3.7374,-3.7393,-3.7456,-3.7493,-3.7472,-3.7512,-3.7554,-3.7606,-3.7668,-3.7716,-3.7823,-3.7827,-3.7882,-3.7864,-3.796,-3.7871,-3.7877,-3.7864,-3.7859,-3.7865,-3.7976,-3.7979,-3.7981,-3.7983,0,-3.7455,-3.7449,-3.7504,-3.7558,-3.7604,-3.7645,-3.7682,-3.7717,-3.7699,-3.7746,-3.7813,-3.7851,-3.7925,-3.7987,-3.8038,-3.8052,-3.8015,-3.8012,-3.8033,-3.8041,-3.8042,-3.8041,-3.7755,-3.8004,-3.8002,-3.8001,-3.8,-3.7999,-3.7615,-3.7675,-3.7705,-3.7768,-3.7795,-3.7831,-3.7886,-3.7893,-3.7948,-3.8008,-3.7992,-3.8068,-3.8098,-3.8164,-3.8185,-3.8243,-3.8207,-3.8239,-3.8247,-3.8255,-3.8265,-3.8035,-3.8253,-3.8252,-3.8251,-3.8251,-3.825,0,-3.7832,-3.7849,-3.7908,-3.7962,-3.8011,-3.7974,-3.8014,-3.8057,-3.8125,-3.8157,-3.8205,-3.8283,-3.8343,-3.8352,-3.8409,-3.8454,-3.8438,-3.847,-3.8465,-3.8469,-3.8294,-3.8269,-3.8481,-3.8481,-3.8481,-3.8481,-3.8481,-3.8481,-3.795,-3.8048,-3.8046,-3.8157,-3.8174,-3.8249,-3.8275,-3.8308,-3.8333,-3.8421,-3.8471,-3.8478,-3.8501,-3.8559,-3.8613,-3.8614,-3.8636,-3.8674,-3.8668,-3.8504,-3.8481,-3.8459,-3.8435,-3.8679,-3.868,-3.8838,-3.884,-3.8841]},{"header":{"parameterUnit":"m.s-1","parameterCategory":1,"la1":30.2991,"la2":30.254,"lo1":-89.0895,"lo2":-89.0444,"dy":0.0017,"dx":0.0017,"nx":28,"ny":28,"refTime":"2023-09-06T03:00:00:Z","depth":0,"parameterNumber":3,"parameterNumberName":"V-component_of_WINDS"},"data":[0,0,0,0,0,0,0,0,0,0,0,0,0,0,0,0,0,0,0,0,0,0,0,0,0,0,0,0,0,0,0,0,0,0,0,0,0,0,0,0,0,0,0,0,0,0,0,0,0,0,0,0,0,0,0,0,0,0,0.4127,0.4127,0,0.4123,0.4123,0.4123,0.4093,0.4093,0.4092,0.4091,0.4088,0.4088,0.4089,0,0,0,0,0,0,0,0,0,0,0,0,0,0.4111,0.4112,0.4127,0.4127,0.4127,0.4123,0.4123,0.4123,0.4094,0.4093,0.4092,0.4091,0.4087,0.4088,0.4089,0,0,0,0,0,0,0,0,0,0,0,0,0,0.4114,0.4112,0.4127,0.4112,0.411,0.4123,0.4123,0.4123,0.4094,0.4093,0.4092,0.4091,0.4087,0.4088,0.4089,0.4116,0,0,0.4091,0.4092,0,0,0,0,0,0,0,0,0.4114,0.4114,0.4114,0.4113,0.4111,0.4108,0.4116,0.412,0.4094,0.41,0.4091,0.409,0.4095,0.4095,0.4097,0.4115,0.4115,0.4091,0.4092,0.4092,0.4093,0,0,0,0,0,0,0,0.4113,0.4114,0.4125,0.4114,0.4112,0.4106,0.4105,0.4117,0.4104,0.4099,0.4097,0.4097,0.4094,0.4096,0.4096,0.4115,0.4091,0.4092,0.4093,0.4093,0.4159,0.416,0,0,0,0,0,0,0.4115,0.4114,0.4125,0.4125,0.411,0.4107,0.4106,0.411,0.4103,0.4101,0.4098,0.4096,0.4095,0.4096,0.4096,0.4129,0.4092,0.4093,0.4094,0.4158,0.4159,0.4161,0,0,0,0,0,0,0.4115,0.4116,0.4125,0.4119,0.412,0.4108,0.4113,0.411,0.4112,0.4102,0.41,0.4102,0.4094,0.4095,0.4112,0.4128,0.4093,0.4094,0.4156,0.4158,0.416,0.4194,0,0,0,0,0,0,0.4115,0.4117,0.4126,0.412,0.412,0.414,0.4114,0.4111,0.4114,0.4111,0.4106,0.4104,0.4094,0.4111,0.4113,0.4129,0.4095,0.4155,0.4157,0.4159,0.4191,0.4196,0.4201,0,0,0,0,0,0.4114,0.4135,0.4126,0.4128,0.4131,0.4141,0.4141,0.4129,0.4115,0.4125,0.4119,0.4104,0.4127,0.4113,0.4114,0.4131,0.4154,0.4157,0.4159,0.4189,0.4195,0.4201,0,0,0,0,0,0,0.4142,0.4133,0.4124,0.4143,0.4143,0.4136,0.4148,0.4136,0.414,0.4137,0.4122,0.4121,0.414,0.4138,0.4122,0.4159,0.4138,0.4141,0.4159,0.4166,0.4171,0.4171,0.4096,0,0,0,0,0,0.415,0.4159,0.4151,0.4168,0.4169,0.4159,0.4162,0.4153,0.4153,0.4152,0.4148,0.4148,0.4156,0.4161,0.4167,0.4191,0.4191,0.4204,0.4209,0.4213,0.4216,0.4231,0.4238,0.417,0.417,0.417,0,0,0.4167,0.4164,0.417,0.4174,0.4173,0.4183,0.4159,0.4169,0.4177,0.4154,0.417,0.4167,0.4167,0.4188,0.4197,0.4186,0.4235,0.4217,0.422,0.4221,0.4235,0.4241,0.4247,0.4172,0.4172,0.4171,0,0,0.4204,0.4201,0.4217,0.4217,0.4217,0.421,0.4214,0.421,0.4207,0.4223,0.4207,0.4217,0.4229,0.423,0.4232,0.4274,0.4261,0.4276,0.4302,0.4318,0.4323,0.4328,0.4344,0.435,0.428,0.428,0.428,0,0.4225,0.4238,0.4226,0.4239,0.4242,0.4223,0.424,0.4241,0.4242,0.4245,0.4234,0.4251,0.4249,0.4272,0.4283,0.4285,0.429,0.4276,0.4323,0.4328,0.4332,0.4347,0.4353,0.4282,0.4281,0.4281,0.4281,0,0.4265,0.4275,0.4288,0.4291,0.4296,0.431,0.4302,0.4308,0.43,0.4296,0.4314,0.4312,0.4318,0.4323,0.4314,0.4346,0.4339,0.4326,0.4304,0.4341,0.4355,0.436,0.4284,0.4284,0.4283,0.4283,0,0,0.4316,0.4315,0.4319,0.4322,0.4322,0.433,0.4345,0.4352,0.4359,0.4362,0.4375,0.4388,0.4376,0.4379,0.4371,0.4384,0.442,0.4369,0.4369,0.4379,0.4456,0.4466,0.4473,0.4412,0.4413,0.4413,0.4457,0,0.4351,0.4376,0.4367,0.4393,0.4403,0.4388,0.4402,0.4404,0.4401,0.441,0.4407,0.4417,0.4401,0.4403,0.4415,0.4412,0.4435,0.4409,0.4425,0.4425,0.4425,0.448,0.449,0.4531,0.4462,0.4463,0.4463,0,0.4395,0.4401,0.4428,0.4429,0.4433,0.4445,0.4453,0.4462,0.4465,0.4463,0.4468,0.4458,0.4474,0.4454,0.4478,0.4461,0.4467,0.4467,0.4469,0.4469,0.4446,0.4483,0.4543,0.455,0.4472,0.4471,0.4471,0,0.443,0.4445,0.4464,0.4466,0.4468,0.4477,0.4478,0.4481,0.4487,0.4494,0.4498,0.4507,0.4512,0.452,0.4514,0.45,0.454,0.4518,0.4539,0.4539,0.4547,0.4546,0.4609,0.4551,0.4551,0.4551,0.4551,0,0.447,0.4487,0.448,0.4491,0.4512,0.4503,0.4523,0.4523,0.4526,0.4538,0.4526,0.4538,0.4529,0.4541,0.4536,0.4558,0.456,0.4559,0.4558,0.456,0.456,0.4563,0.456,0.4552,0.4552,0.4552,0.4552,0,0.4512,0.4507,0.4527,0.4528,0.4529,0.4544,0.4545,0.4557,0.4555,0.4571,0.4574,0.4571,0.4585,0.458,0.4594,0.4591,0.4619,0.4614,0.4618,0.4616,0.4638,0.4636,0.4705,0.4714,0.465,0.465,0.4651,0,0.4537,0.455,0.4554,0.4562,0.4564,0.4576,0.4583,0.4576,0.4584,0.4592,0.4603,0.4616,0.4625,0.4649,0.4648,0.466,0.4655,0.4679,0.4657,0.466,0.4657,0.4656,0.4658,0.4683,0.4683,0.4684,0.4684,0,0.4583,0.4582,0.4592,0.4602,0.4611,0.4619,0.4626,0.4633,0.4627,0.4637,0.4651,0.4659,0.4675,0.4689,0.4701,0.4703,0.4694,0.4692,0.4697,0.47,0.4702,0.4702,0.463,0.469,0.4689,0.4689,0.4689,0.4688,0.4618,0.463,0.4635,0.4648,0.4653,0.4661,0.4673,0.4673,0.4685,0.4698,0.4694,0.4711,0.4718,0.4732,0.4737,0.4751,0.4742,0.475,0.4752,0.4754,0.4757,0.47,0.4753,0.4753,0.4753,0.4753,0.4752,0,0.4664,0.4668,0.468,0.4691,0.4702,0.4693,0.4701,0.4711,0.4726,0.4733,0.4744,0.4762,0.4777,0.4779,0.4793,0.4804,0.48,0.4808,0.4807,0.4808,0.4763,0.4758,0.4811,0.4811,0.4811,0.4811,0.4811,0.4811,0.4689,0.471,0.471,0.4734,0.4738,0.4755,0.4761,0.4768,0.4774,0.4795,0.4808,0.4809,0.4815,0.483,0.4844,0.4844,0.485,0.486,0.4859,0.4817,0.4811,0.4805,0.48,0.4861,0.4861,0.4902,0.4903,0.4903]}]]